#timestamp,LO_Frequency,Hit,StdDev 
1620758855.7,286047044.0,P
1620758875.5,286047044.1,P
1620758895.4,286047043.7,P
1620758915.2,286047041.5,Y
1620758935.1,286047001.2,P
1620758936.0,286047001.2,N
1620758955.8,286046999.9,N
1620758975.6,286047000.4,N
1620758995.5,286047002.0,N
1620759015.3,286047002.6,N
1620759035.1,286047002.8,N
1620759055.9,286047001.9,N
1620759075.7,286047002.0,N
1620759095.6,286047001.6,N
1620759115.4,286047001.9,N
1620759135.2,286047004.4,N
1620759155.1,286047003.7,N
1620759156.0,286047003.7,N
1620759175.8,286047004.3,N
1620759195.6,286047004.1,N
1620759215.5,286047003.0,N
1620759235.3,286047003.7,N
1620759255.2,286047003.3,N
1620759275.9,286047002.9,N
1620759295.7,286047003.5,N
1620759315.6,286047005.5,N
1620759335.4,286047005.8,N
1620759355.3,286047004.6,N
1620759375.1,286047007.5,N
1620759376.0,286047007.5,N
1620759395.8,286047007.4,N
1620759415.7,286047006.8,N
1620759435.5,286047006.7,N
1620759455.3,286047006.7,N
1620759475.2,286047006.3,N
1620759495.0,286047008.8,Y
1620759495.9,286047008.8,P
1620759515.8,286047005.9,N
1620759535.6,286047005.9,N
1620759555.4,286047002.9,N
1620759575.3,286047005.8,N
1620759595.1,286047005.4,N
